San Diego, CA

3:45 AM PDT on August 23, 2017 (GMT -0700)
San Diego International-Lindbergh

Weather History for KSAN - November, 2013

Change the Weather History Date:

Saturday, November 9, 2013

  Actual Average Record
Temperature  
Mean Temperature 63 °F 63 °F  
Max Temperature 74 °F 70 °F 96 °F (1956)
Min Temperature 52 °F 55 °F 42 °F (1881)
Degree Days  
Heating Degree Days 2 3  
Month to date heating degree days 10 21  
Since 1 July heating degree days 32 42  
Cooling Degree Days 0 1  
Month to date cooling degree days 8 9  
Year to date cooling degree days 746 716  
Growing Degree Days 12 (Base 50)    
Moisture  
Dew Point 45 °F    
Average Humidity 53    
Maximum Humidity 89    
Minimum Humidity 16    
Precipitation  
Precipitation 0.00 in 0.03 in 2.68 in (1879)
Month to date precipitation T 0.23  
Year to date precipitation 3.63 8.03  
Since 1 July precipitation 0.30  
Snow  
Snow 0.00 in - - ()
Month to date snowfall 0.0  
Year to date snowfall 0.0  
Snow Depth 0.00 in    
Sea Level Pressure  
Sea Level Pressure 30.04 in    
Wind  
Wind Speed 3 mph (NW)    
Max Wind Speed 8 mph    
Max Gust Speed 10 mph    
Visibility 6 miles    
Events      
T = Trace of Precipitation, MM = Missing Value Source: NWS Daily Summary

Daily Weather History Graph

Daily Weather History Graph

Search for Another Location

Airport or City:

Trip Planner

Search our weather history database for the weather conditions in past years. The results will help you decide how hot, cold, wet, or windy it might be!

Date:

Astronomy

Nov. 09, 2013 Rise Set
Actual Time 6:13 AM PST 4:51 PM PST
Civil Twilight 5:47 AM PST 5:16 PM PST
Nautical Twilight 5:18 AM PST 5:46 PM PST
Astronomical Twilight 4:49 AM PST 6:15 PM PST
Moon 11:57 AM PST (11/9) 11:21 PM PST (11/9)
Length of Visible Light 11h 29m
Length of Day
10h 37m
Waxing Crescent, 45% of the Moon is Illuminated
Nov 9
Waxing Crescent
Nov 9
First Quarter
Nov 17
Full
Nov 25
Last Quarter
Dec 2
New

Hourly Weather History & Observations

Time (PST) Temp. Dew Point Humidity Pressure Visibility Wind Dir Wind Speed Gust Speed Precip Events Conditions
12:51 AM 59.0 °F 55.0 °F 87% 30.03 in 5.0 mi Calm Calm - N/A   Overcast
1:51 AM 59.0 °F 54.0 °F 83% 30.02 in 3.0 mi ESE 3.5 mph - N/A   Overcast
2:51 AM 57.9 °F 53.1 °F 84% 30.02 in 3.0 mi Calm Calm - N/A   Mostly Cloudy
3:10 AM 57.2 °F 51.8 °F 82% 30.02 in 4.0 mi NE 3.5 mph - N/A   Scattered Clouds
3:51 AM 55.9 °F 51.1 °F 84% 30.02 in 3.0 mi Calm Calm - N/A   Scattered Clouds
4:29 AM 55.4 °F 50.0 °F 82% 30.02 in 2.5 mi NNE 3.5 mph - N/A   Mostly Cloudy
4:51 AM 55.0 °F 51.1 °F 86% 30.03 in 2.0 mi North 3.5 mph - N/A   Mostly Cloudy
5:01 AM 53.6 °F 51.8 °F 94% 30.03 in 0.2 mi NW 3.5 mph - N/A   Overcast
5:11 AM 53.6 °F 51.8 °F 94% 30.03 in 0.2 mi Calm Calm - N/A   Overcast
5:22 AM 53.6 °F 51.8 °F 94% 30.03 in 0.2 mi Calm Calm - N/A   Overcast
5:36 AM 53.6 °F 50.0 °F 88% 30.03 in 0.2 mi Calm Calm - N/A   Overcast
5:51 AM 52.0 °F 48.9 °F 89% 30.03 in 0.5 mi North 3.5 mph - N/A   Mostly Cloudy
6:01 AM 51.8 °F 48.2 °F 88% 30.03 in 1.0 mi Calm Calm - N/A   Scattered Clouds
6:06 AM 53.6 °F 48.2 °F 82% 30.03 in 2.0 mi Calm Calm - N/A   Haze
6:17 AM 53.6 °F 46.4 °F 77% 30.03 in 8.0 mi North 3.5 mph - N/A   Partly Cloudy
6:51 AM 54.0 °F 44.1 °F 69% 30.04 in 10.0 mi North 3.5 mph - N/A   Partly Cloudy
7:51 AM 57.9 °F 44.1 °F 60% 30.05 in 10.0 mi Calm Calm - N/A   Partly Cloudy
8:51 AM 63.0 °F 42.1 °F 46% 30.07 in 10.0 mi NNW 4.6 mph - N/A   Clear
9:51 AM 66.9 °F 35.1 °F 31% 30.07 in 10.0 mi Calm Calm - N/A   Clear
10:51 AM 69.1 °F 34.0 °F 27% 30.06 in 10.0 mi SSW 5.8 mph - N/A   Clear
11:36 AM 71.6 °F 26.6 °F 19% 30.04 in 10.0 mi SW 4.6 mph - N/A   Partly Cloudy
11:51 AM 73.0 °F 24.1 °F 16% 30.04 in 10.0 mi Variable 3.5 mph - N/A   Partly Cloudy
12:51 PM 72.0 °F 43.0 °F 35% 30.02 in 10.0 mi NW 5.8 mph - N/A   Partly Cloudy
1:51 PM 72.0 °F 39.0 °F 30% 30.03 in 10.0 mi WNW 6.9 mph - N/A   Partly Cloudy
2:51 PM 69.1 °F 44.1 °F 40% 30.03 in 10.0 mi NW 5.8 mph - N/A   Partly Cloudy
3:51 PM 70.0 °F 35.1 °F 28% 30.02 in 10.0 mi WNW 4.6 mph - N/A   Scattered Clouds
4:51 PM 69.1 °F 34.0 °F 27% 30.02 in 10.0 mi WNW 4.6 mph - N/A   Mostly Cloudy
5:51 PM 64.0 °F 52.0 °F 65% 30.05 in 10.0 mi WNW 5.8 mph - N/A   Mostly Cloudy
6:51 PM 63.0 °F 53.1 °F 70% 30.07 in 10.0 mi Calm Calm - N/A   Scattered Clouds
7:51 PM 62.1 °F 53.1 °F 72% 30.08 in 8.0 mi Calm Calm - N/A   Scattered Clouds
8:51 PM 62.1 °F 52.0 °F 70% 30.09 in 8.0 mi Calm Calm - N/A   Scattered Clouds
9:51 PM 61.0 °F 50.0 °F 67% 30.08 in 7.0 mi Calm Calm - N/A   Mostly Cloudy
10:51 PM 61.0 °F 42.1 °F 50% 30.06 in 10.0 mi Calm Calm - N/A   Mostly Cloudy
11:51 PM 61.0 °F 39.0 °F 44% 30.04 in 10.0 mi Calm Calm - N/A   Mostly Cloudy